Terminal Aerodrome Forecast
Issued by NWS

Home | Current Version | Previous Version | Text Only | Print | Product List | Glossary On
Versions: 1 2 3 4 5 6 7 8 9 10 11 12 13 14 15 16 17 18 19 20 21 22 23 24 25 26 27 28
000
FTUS43 KPAH 312325
TAFOWB
TAF
KOWB 312325Z 0100/0124 12003KT P6SM FEW050 SCT100
     FM011400 22006KT P6SM SCT050 BKN250
     FM011700 26005KT P6SM SCT040 BKN100 PROB30 0118/0124 3SM TSRA
      BKN030CB=

USA.gov is the U.S. government's official web portal to all federal, state and local government web resources and services.